Stagione 2025 · Round 22

Las Vegas Grand Prix

2025-11-23 · Las Vegas Strip Street Circuito · USA · Las Vegas Grand Prix · 50Lap · 309.958km
Red Bull 1:21:08.429
Mercedes +23.546
Vittoria di squadra 33pt P2 · P3 2-3
Giro veloce
1:33.365 · L50
Ritiro
3
Alexander Albon L35 Gabriel Bortoleto L2 Lance Stroll L0
Meteo
17°/20°
media aria/pista · asciutto · umidità 38%
Safety car
2
schierata al giro L2, L16
Uso gomme Direzione gara
Storylines · This Grand Prix & circuit
Most SC/VSC · all-time P6
Circuito Info
50Lap 309.958km 4 gare held (2023–) Record del giro 1:33.365 · Max Verstappen (2025)
Record Watch · Active drivers ranked at this Grand Prix
P1 Max Verstappen 2 vittorie · GP #1
P2 George Russell 1 vittorie · → Max Verstappen -1
P1 Charles Leclerc 1 · GP #1
P1 Lando Norris 1 · GP #1
P1 George Russell 1 · GP #1
P1 George Russell 2 · GP #1
P1 Max Verstappen 2 · GP #1
P1 Lando Norris 1 · GP #1
P1 Oscar Piastri 1 · GP #1
P1 Max Verstappen 1 · GP #1
P1 Alexander Albon 3 partenze · GP #1
P1 Fernando Alonso 3 partenze · GP #1
P1 Pierre Gasly 3 partenze · GP #1
Gara Trace · position by lap
VSC · giri 2–4 VSC · giro 16 partenza da fermo SG 1 5 9 13 17 21 25 29 33 37 41 45 49 FIN Verstappen · sosta ai box L25 Verstappen VER Verstappen VER Russell · sosta ai box L17 Russell RUS Russell RUS Antonelli · sosta ai box L2 Antonelli · +5s aggiunto a fine gara Antonelli ANT Antonelli ANT Leclerc · sosta ai box L24 Leclerc LEC Leclerc LEC Sainz · sosta ai box L22 Sainz SAI Sainz SAI Hadjar · sosta ai box L20 Hadjar HAD Hadjar HAD Hülkenberg · sosta ai box L30 Hülkenberg HUL Hülkenberg HUL Hamilton · sosta ai box L29 Hamilton HAM Hamilton HAM Ocon · sosta ai box L27 Ocon OCO Ocon OCO Bearman · sosta ai box L17 Bearman BEA Bearman BEA Alonso · sosta ai box L16 Alonso ALO Alonso ALO Tsunoda · sosta ai box L1 Tsunoda · sosta ai box L27 Tsunoda TSU Tsunoda TSU Gasly · sosta ai box L2 Gasly GAS Gasly GAS Lawson · sosta ai box L2 Lawson · sosta ai box L28 Lawson LAW Lawson LAW Colapinto · sosta ai box L25 Colapinto COL Colapinto COL Albon · sosta ai box L13 Albon · sosta ai box L34 · penalità scontata Albon · ritiro L35 Albon ALB Albon ALB Bortoleto · sosta ai box L1 Bortoleto · ritiro L2 Bortoleto BOR Bortoleto BOR Stroll · ritiro L0 Stroll STR Stroll STR Norris · sosta ai box L22 Norris NOR Norris NOR Piastri · sosta ai box L21 Piastri PIA Piastri PIA
SC·VSC sosta ai box penalità scontata ai box SG Griglia di partenza FIN classifica ufficiale penalità aggiunta a fine gara vettura ferma posizione a ogni giro (dal 1996)
PosPilotaTeamGrigliaGiroTempo / StatoPunti
1 1 Max Verstappen FL Red Bull 2 50 1:21:08.429 25
2 63 George Russell Mercedes 4 50 +23.546 18
3 12 Andrea Kimi Antonelli Mercedes 17 50 +30.488 15
4 16 Charles Leclerc Ferrari 9 50 +30.678 12
5 55 Carlos Sainz Williams 3 50 +34.924 10
6 6 Isack Hadjar RB F1 Team 8 50 +45.257 8
7 27 Nico Hülkenberg Sauber 11 50 +51.134 6
8 44 Lewis Hamilton Ferrari 19 50 +59.369 4
9 31 Esteban Ocon Haas F1 Team 13 50 +1:00.635 2
10 87 Oliver Bearman Haas F1 Team 14 50 +1:10.549 1
11 14 Fernando Alonso Aston Martin 7 50 +1:25.308
12 22 Yuki Tsunoda Red Bull 20 50 +1:26.974
13 10 Pierre Gasly Alpine F1 Team 10 50 +1:31.702
14 30 Liam Lawson RB F1 Team 6 49 +3.291
15 43 Franco Colapinto Alpine F1 Team 15 49 +10.459
R 23 Alexander Albon Williams 16 35 Retired
R 5 Gabriel Bortoleto Sauber 18 2 Retired
R 18 Lance Stroll Aston Martin 12 0 Retired
D 4 Lando Norris McLaren 1 50 Disqualified
D 81 Oscar Piastri McLaren 5 50 Disqualified
PosPilotaTeamQ1Q2Q3Distacco dalla pole
1 4 Lando Norris McLaren 1:55.473 1:51.379 1:47.934 POLE Q3
2 1 Max Verstappen Red Bull 1:53.458 1:51.593 1:48.257 +0.323 Q3
3 55 Carlos Sainz Williams 1:54.873 1:51.144 1:48.296 +0.362 Q3
4 63 George Russell Mercedes 1:53.144 1:50.935 1:48.803 +0.869 Q3
5 81 Oscar Piastri McLaren 1:54.544 1:52.126 1:48.961 +1.027 Q3
6 30 Liam Lawson RB F1 Team 1:54.828 1:51.621 1:49.062 +1.128 Q3
7 14 Fernando Alonso Aston Martin 1:53.739 1:51.865 1:49.466 +1.532 Q3
8 6 Isack Hadjar RB F1 Team 1:55.613 1:51.120 1:49.554 +1.620 Q3
9 16 Charles Leclerc Ferrari 1:54.814 1:51.952 1:49.872 +1.938 Q3
10 10 Pierre Gasly Alpine F1 Team 1:54.432 1:51.760 1:51.540 +3.606 Q3
11 27 Nico Hülkenberg Sauber 1:54.555 1:52.781 +4.847 Q2
12 18 Lance Stroll Aston Martin 1:54.416 1:52.850 +4.916 Q2
13 31 Esteban Ocon Haas F1 Team 1:54.635 1:52.987 +5.053 Q2
14 87 Oliver Bearman Haas F1 Team 1:56.016 1:53.094 +5.160 Q2
15 43 Franco Colapinto Alpine F1 Team 1:54.847 1:53.683 +5.749 Q2
16 23 Alexander Albon Williams 1:56.220 +8.286 Q1
17 12 Andrea Kimi Antonelli Mercedes 1:56.314 +8.380 Q1
18 5 Gabriel Bortoleto Sauber 1:56.674 +8.740 Q1
19 22 Yuki Tsunoda Red Bull 1:56.798 +8.864 Q1
20 44 Lewis Hamilton Ferrari 1:57.115 +9.181 Q1
Griglia di partenza
Ufficiale
Final grid as classificato, including any dalla pit lane partenze. Source: Jolpica-F1. The arrow compares the grid slot with the le qualifiche classification; hover a drop to see the stewards document behind it.
Nessun dato per questa sessione.
PosPilotaGiro miglioreDistaccoGiri
1 16 Charles Leclerc 1:34.802 29
2 23 Alexander Albon 1:34.968 +0.166 23
3 22 Yuki Tsunoda 1:35.071 +0.269 27
4 1 Max Verstappen 1:35.109 +0.307 24
5 55 Carlos Sainz 1:35.179 +0.377 31
6 4 Lando Norris 1:35.258 +0.456 25
7 6 Isack Hadjar 1:35.299 +0.497 30
8 81 Oscar Piastri 1:35.450 +0.648 27
9 63 George Russell 1:35.534 +0.732 25
10 12 Andrea Kimi Antonelli 1:35.538 +0.736 30
11 44 Lewis Hamilton 1:35.561 +0.759 26
12 10 Pierre Gasly 1:35.589 +0.787 26
13 30 Liam Lawson 1:35.709 +0.907 28
14 14 Fernando Alonso 1:35.746 +0.944 23
15 18 Lance Stroll 1:35.894 +1.092 25
16 87 Oliver Bearman 1:35.990 +1.188 28
17 31 Esteban Ocon 1:36.123 +1.321 30
18 27 Nico Hülkenberg 1:36.170 +1.368 25
19 5 Gabriel Bortoleto 1:36.398 +1.596 25
20 43 Franco Colapinto 1:36.758 +1.956 28
Classified by best lap · source OpenF1 (2023+)
PosPilotaGiro miglioreDistaccoGiri
1 4 Lando Norris 1:33.602 13
2 12 Andrea Kimi Antonelli 1:33.631 +0.029 18
3 16 Charles Leclerc 1:33.763 +0.161 16
4 27 Nico Hülkenberg 1:33.879 +0.277 14
5 6 Isack Hadjar 1:33.893 +0.291 16
6 30 Liam Lawson 1:33.901 +0.299 16
7 63 George Russell 1:34.037 +0.435 18
8 23 Alexander Albon 1:34.067 +0.465 17
9 1 Max Verstappen 1:34.105 +0.503 16
10 44 Lewis Hamilton 1:34.127 +0.525 17
11 18 Lance Stroll 1:34.191 +0.589 15
12 10 Pierre Gasly 1:34.373 +0.771 18
13 55 Carlos Sainz 1:34.435 +0.833 16
14 81 Oscar Piastri 1:34.493 +0.891 12
15 22 Yuki Tsunoda 1:34.692 +1.090 16
16 43 Franco Colapinto 1:34.824 +1.222 18
17 87 Oliver Bearman 1:34.986 +1.384 17
18 14 Fernando Alonso 1:35.012 +1.410 14
19 31 Esteban Ocon 1:35.228 +1.626 18
20 5 Gabriel Bortoleto 1:35.499 +1.897 15
Classified by best lap · source OpenF1 (2023+)
PosPilotaGiro miglioreDistaccoGiri
1 63 George Russell 1:34.054 21
2 1 Max Verstappen 1:34.281 +0.227 28
3 23 Alexander Albon 1:34.875 +0.821 21
4 6 Isack Hadjar 1:35.169 +1.115 26
5 44 Lewis Hamilton 1:35.269 +1.215 29
6 12 Andrea Kimi Antonelli 1:35.385 +1.331 23
7 30 Liam Lawson 1:35.439 +1.385 25
8 18 Lance Stroll 1:35.533 +1.479 11
9 14 Fernando Alonso 1:35.540 +1.486 12
10 10 Pierre Gasly 1:35.562 +1.508 13
11 87 Oliver Bearman 1:35.586 +1.532 18
12 55 Carlos Sainz 1:35.662 +1.608 22
13 5 Gabriel Bortoleto 1:35.738 +1.684 16
14 31 Esteban Ocon 1:35.817 +1.763 24
15 16 Charles Leclerc 1:35.908 +1.854 27
16 43 Franco Colapinto 1:36.305 +2.251 17
17 27 Nico Hülkenberg 1:36.650 +2.596 11
18 22 Yuki Tsunoda 1:36.667 +2.613 24
19 81 Oscar Piastri 1:37.023 +2.969 20
20 4 Lando Norris 1:37.112 +3.058 18
Classified by best lap · source OpenF1 (2023+)
#PilotaTempo sul giroGiro
1 1 Max Verstappen 1:33.365 L50
2 1 Max Verstappen 1:33.895 L47
3 4 Lando Norris 1:33.965 L41
4 12 Andrea Kimi Antonelli 1:33.998 L48
5 1 Max Verstappen 1:34.017 L46
6 1 Max Verstappen 1:34.026 L43
7 1 Max Verstappen 1:34.030 L40
8 12 Andrea Kimi Antonelli 1:34.042 L49
9 12 Andrea Kimi Antonelli 1:34.068 L50
10 4 Lando Norris 1:34.081 L42
Top 10 più veloce race giri — #1 is the più veloce lap of la gara(FL).
Pit stop · a confronto
20s 25s 30s mediana 21.6s Yuki Tsunoda · L27 · 20.680s George Russell · L17 · 20.929s Lando Norris · L22 · 21.049s Fernando Alonso · L16 · 21.068s Carlos Sainz · L22 · 21.164s Liam Lawson · L28 · 21.287s Isack Hadjar · L20 · 21.324s Charles Leclerc · L24 · 21.351s Oscar Piastri · L21 · 21.371s Yuki Tsunoda · L1 · 21.383s Oliver Bearman · L17 · 21.491s Lewis Hamilton · L29 · 21.638s Max Verstappen · L25 · 21.708s Andrea Kimi Antonelli · L2 · 21.968s Nico Hülkenberg · L30 · 22.333s Esteban Ocon · L27 · 22.389s Franco Colapinto · L25 · 22.842s Alexander Albon · L13 · 23.361s Pierre Gasly · L2 · 23.903s Alexander Albon · L34 · 29.308s · penalità scontata Liam Lawson · L2 · 32.736s Gabriel Bortoleto · L1 · 33.230s
più veloce 20.680s Yuki Tsunoda più lenta 33.230s Gabriel Bortoleto penalità scontata tempo di transito nella dalla pit lane — un punto per sosta
PilotaSostaGiroTempoTransito in dalla pit lane
22 Yuki Tsunoda 1 1 20:06:03 21.383s
5 Gabriel Bortoleto 1 1 20:06:15 33.230s
30 Liam Lawson 1 2 20:08:08 32.736s
10 Pierre Gasly 1 2 20:08:09 23.903s
12 Andrea Kimi Antonelli 1 2 20:07:58 21.968s
23 Alexander Albon 1 13 20:26:29 23.361s
14 Fernando Alonso 1 16 20:31:38 21.068s
63 George Russell 1 17 20:32:52 20.929s
87 Oliver Bearman 1 17 20:33:15 21.491s
6 Isack Hadjar 1 20 20:38:00 21.324s
81 Oscar Piastri 1 21 20:39:32 21.371s
55 Carlos Sainz 1 22 20:41:08 21.164s
4 Lando Norris 1 22 20:40:53 21.049s
16 Charles Leclerc 1 24 20:44:22 21.351s
1 Max Verstappen 1 25 20:45:37 21.708s
43 Franco Colapinto 1 25 20:46:33 22.842s
31 Esteban Ocon 1 27 20:49:26 22.389s
22 Yuki Tsunoda 2 27 20:49:47 20.680s
30 Liam Lawson 2 28 20:51:28 21.287s
44 Lewis Hamilton 1 29 20:52:31 21.638s
27 Nico Hülkenberg 1 30 20:54:06 22.333s
23 Alexander Albon 3 34 21:01:22 29.308s
soste
SG 10 20 30 40 L50
1
1
M24
H26
63
1
M16
H34
12
1
S1
H49
16
1
M23
H27
55
1
M21
H29
6
1
M19
H31
27
1
H29
M21
44
1
H28
M22
31
1
M26
H24
87
1
M16
H34
14
1
M15
H35
22
2
H26
M24
10
1
M1
H49
30
2
M1
H26
H22
43
1
H24
M25
23
2
H12
H21
H2
5
1
H2
18
0
M1
4
1
M21
H29
81
1
M20
H30
S Soft M Medium H Hard I Intermediate W Wet SC·VSC sosta ai box penalità scontata ai box
Gara · larghezza barra = giri su quel treno, ·+N = montato usato con N giri pregressi · fonte OpenF1 (2023+)
Mescole designate per questo Gran Premio
C3 Dura C4 Media C5 Morbida
Pirelli designa tre delle sue mescole slick per ogni evento; più alto è il numero C, più morbida è la gomma. Documento FIA ↗
Più posizioni guadagnate in pista
12
+11
P17→P3
16
+10
P9→P4
31
+9
P13→P9
44
+8
P19→P8
22
+8
P20→P12
81
+8
P5→P—
27
+7
P11→P7
43
+7
P15→P15
Più posizioni perse
Liam Lawson −15 Oliver Bearman −9 Esteban Ocon −8
Gara · Somma delle posizioni guadagnate in pista giro per giro — esclusi il giro di partenza e i propri giri ai box. Dati dei giri di gara dal 1996.
PilotaTipoGiroScontataAssegnataMotivo
81 Oscar Piastri 실격 The thickness of the plank assembly was below the permitted minimum thickness. (Car 81 is squalificato from the Gara classification. All other drivers move up in the classification) Doc 58 ↗
The thickness of the plank assembly was below the permitted minimum thickness. (Car 81 is squalificato from the Gara classification. All other drivers move up in the classification) Doc 58 ↗
4 Lando Norris 실격 The thickness of the plank assembly was below the permitted minimum thickness. (Car 4 is squalificato from the Gara classification. All other drivers move up in the classification.) Doc 57 ↗
The thickness of the plank assembly was below the permitted minimum thickness. (Car 4 is squalificato from the Gara classification. All other drivers move up in the classification.) Doc 57 ↗
5 Gabriel Bortoleto Penalità in griglia ▼5 · 2pt Car 5 collided with Car 18 in Turn 1 (Drop of 5 grid positions for the next Gara in which the driver participates. 2 penalty points (total) Doc 51 ↗
▼5 · 2pt Car 5 collided with Car 18 in Turn 1 (Drop of 5 grid positions for the next Gara in which the driver participates. 2 penalty points (total) Doc 51 ↗
30 Liam Lawson No further action Turn 1 incident with car 81 (No further action) Doc 47 ↗
Turn 1 incident with car 81 (No further action) Doc 47 ↗
12 Andrea Kimi Antonelli Time penalty 15 A fine gara +5s Car 12 moved forward from its start position, prior to the start signal. (5 second time penalty.) Doc 48 ↗
Giro 15 · Scontata A fine gara · +5s Car 12 moved forward from its start position, prior to the start signal. (5 second time penalty.) Doc 48 ↗
23 Alexander Albon Time penalty 20 34 +5s · 1pt Collison with Car 44 in Turn 14. (5 second time penalty. 1 penalty point (total of 5 for the 12 month period).) Doc 49 ↗
Giro 20 · Scontata 34 · +5s · 1pt Collison with Car 44 in Turn 14. (5 second time penalty. 1 penalty point (total of 5 for the 12 month period).) Doc 49 ↗
Giro = giro in cui è stata inflitta la penalità · Scontata = giro in cui è stata scontata ai box (vuoto: sommata al tempo di gara)
Time, drive-through and stop-go penalties come from race control messages (OpenF1, 2023+). Griglia penalties never appear there — the stewards publish them as documents after the session — so they are worked back from the starting grid against the le qualifiche classification, which gives places actually lost rather than the figure written in the decision.
PilotaTipoGiroScontataAssegnataMotivo
22 Yuki Tsunoda Pit lane start The following Power Unit elements have been usati: 6th Internal Combustion Motore (ICE) 6th Turbo Charger (TC) 6th Motor Generator Unit - Heat (MGU-H) 6th Motor Generator Unit - Kinetic (MGU-K) 9th Motore Exhaust System (EX) All Power Unit elements were re (Required to start the Gara from the dalla pit lane.) Doc 43 ↗
The following Power Unit elements have been usati: 6th Internal Combustion Motore (ICE) 6th Turbo Charger (TC) 6th Motor Generator Unit - Heat (MGU-H) 6th Motor Generator Unit - Kinetic (MGU-K) 9th Motore Exhaust System (EX) All Power Unit elements were re (Required to start the Gara from the dalla pit lane.) Doc 43 ↗
43 Franco Colapinto Fine €5,000 The team failed to electronically lodge the return of the tyres. (The competitor (BWT Alpine F1 Team) is fined €5,000.) Doc 36 ↗
€5,000 The team failed to electronically lodge the return of the tyres. (The competitor (BWT Alpine F1 Team) is fined €5,000.) Doc 36 ↗
55 Carlos Sainz No further action Car 55 went off the track at Turn 5 and rejoined as Car 18 was approaching. (No further action.) Doc 35 ↗
Car 55 went off the track at Turn 5 and rejoined as Car 18 was approaching. (No further action.) Doc 35 ↗
12 Andrea Kimi Antonelli No further action The Competitor appeared to fail to submit setup sheet for car 12 within the required time frame. (No further action.) Doc 32 ↗
The Competitor appeared to fail to submit setup sheet for car 12 within the required time frame. (No further action.) Doc 32 ↗
63 George Russell No further action The Competitor appeared to fail to submit setup sheet for car 63 within the required time frame. (No further action.) Doc 31 ↗
The Competitor appeared to fail to submit setup sheet for car 63 within the required time frame. (No further action.) Doc 31 ↗
6 Isack Hadjar Giri cancellati TRACK LIMITS (PIT)
TRACK LIMITS (PIT)
63 George Russell Giri cancellati TRACK LIMITS (PIT)
TRACK LIMITS (PIT)
1 Max Verstappen Giri cancellati TRACK LIMITS (PIT)
TRACK LIMITS (PIT)
4 Lando Norris Giri cancellati TRACK LIMITS (PIT)
TRACK LIMITS (PIT)
23 Alexander Albon Giri cancellati TRACK LIMITS (PIT)
TRACK LIMITS (PIT)
16 Charles Leclerc Giri cancellati TRACK LIMITS (PIT)
TRACK LIMITS (PIT)
12 Andrea Kimi Antonelli Giri cancellati TRACK LIMITS (PIT)
TRACK LIMITS (PIT)
43 Franco Colapinto Giri cancellati TRACK LIMITS (PIT)
TRACK LIMITS (PIT)
10 Pierre Gasly Giri cancellati TRACK LIMITS (PIT)
TRACK LIMITS (PIT)
16 Charles Leclerc Giri cancellati TRACK LIMITS (PIT)
TRACK LIMITS (PIT)
81 Oscar Piastri Giri cancellati TRACK LIMITS (PIT)
TRACK LIMITS (PIT)
Giro = giro in cui è stata inflitta la penalità · Scontata = giro in cui è stata scontata ai box (vuoto: sommata al tempo di gara)
Time, drive-through and stop-go penalties come from race control messages (OpenF1, 2023+). Griglia penalties never appear there — the stewards publish them as documents after the session — so they are worked back from the starting grid against the le qualifiche classification, which gives places actually lost rather than the figure written in the decision.
PilotaTipoGiroScontataAssegnataMotivo
44 Lewis Hamilton Fine €100 Pit lane speeding – 80.1 km/h (The competitor (Scuderia Ferrari HP) is fined €100.) Doc 21 ↗
€100 Pit lane speeding – 80.1 km/h (The competitor (Scuderia Ferrari HP) is fined €100.) Doc 21 ↗
Giro = giro in cui è stata inflitta la penalità · Scontata = giro in cui è stata scontata ai box (vuoto: sommata al tempo di gara)
Time, drive-through and stop-go penalties come from race control messages (OpenF1, 2023+). Griglia penalties never appear there — the stewards publish them as documents after the session — so they are worked back from the starting grid against the le qualifiche classification, which gives places actually lost rather than the figure written in the decision.
PilotaTipoGiroScontataAssegnataMotivo
16 Charles Leclerc No further action Pilota left the car in gear when he abandoned the car due to a transmission problem and appeared to leave the car in a power-on situation. (No further action.) Doc 17 ↗
Pilota left the car in gear when he abandoned the car due to a transmission problem and appeared to leave the car in a power-on situation. (No further action.) Doc 17 ↗
Giro = giro in cui è stata inflitta la penalità · Scontata = giro in cui è stata scontata ai box (vuoto: sommata al tempo di gara)
Time, drive-through and stop-go penalties come from race control messages (OpenF1, 2023+). Griglia penalties never appear there — the stewards publish them as documents after the session — so they are worked back from the starting grid against the le qualifiche classification, which gives places actually lost rather than the figure written in the decision.
PilotaTipoGiroScontataAssegnataMotivo
23 Alexander Albon Reprimenda Car 23 exceeded the dalla pit lane speed limit when leaving the grid on the Formation Giro. (Pilota: Reprimenda (Driving). This is the driver’s 3rd reprimand of the season.) Doc 50 ↗
Car 23 exceeded the dalla pit lane speed limit when leaving the grid on the Formation Giro. (Pilota: Reprimenda (Driving). This is the driver’s 3rd reprimand of the season.) Doc 50 ↗
4 Lando Norris Altro sanction The car below exceeded the 1:57.0 time limit between the Safety Car lines. No Car Pilota Competitor Time of Day Giro 1 4 Lando Norris McLaren Formula 1 Team 19:22:52 L0 (- Gara SC2-SC1 Time Car 4 DescriptionDecision - Gara SC2-SC1 Time Car 4 Enclosed LAS DOC 46 - Gara S) Doc 46 ↗
The car below exceeded the 1:57.0 time limit between the Safety Car lines. No Car Pilota Competitor Time of Day Giro 1 4 Lando Norris McLaren Formula 1 Team 19:22:52 L0 (- Gara SC2-SC1 Time Car 4 DescriptionDecision - Gara SC2-SC1 Time Car 4 Enclosed LAS DOC 46 - Gara S) Doc 46 ↗
5 Gabriel Bortoleto No further action Alleged Failure to slow for yellow flags (No further action.) Doc 12 ↗
Alleged Failure to slow for yellow flags (No further action.) Doc 12 ↗
Giro = giro in cui è stata inflitta la penalità · Scontata = giro in cui è stata scontata ai box (vuoto: sommata al tempo di gara)
Time, drive-through and stop-go penalties come from race control messages (OpenF1, 2023+). Griglia penalties never appear there — the stewards publish them as documents after the session — so they are worked back from the starting grid against the le qualifiche classification, which gives places actually lost rather than the figure written in the decision.
DocTitoloOggettoPublished(CET)
1 Event Notes - Pirelli Preview ↗ 2025-11-19 01:16
2025-11-19 01:16 CET
2 Event Notes - Circuito Map V2, Pit Lane Drawing, Emergency Map Exits, Quarantine Zone and Red Zones ↗ 2025-11-20 06:50
2025-11-20 06:50 CET
3 Car Display Procedure ↗ 2025-11-20 07:10
2025-11-20 07:10 CET
4 Gara Director's Event Notes ↗ 2025-11-20 07:11
2025-11-20 07:11 CET
5 PU elements usati per driver up to now ↗ 2025-11-21 13:10
2025-11-21 13:10 CET
6 Self Scrutineering ↗ 2025-11-21 13:14
2025-11-21 13:14 CET
7 Car Presentation Submissions ↗ 2025-11-21 13:14
2025-11-21 13:14 CET
8 Entry List ↗ 2025-11-21 13:14
2025-11-21 13:14 CET
9 New PU elements for this Competition ↗ 2025-11-21 13:15
2025-11-21 13:15 CET
10 Summons - Car 5 - Alleged yellow flag infringement ↗ 5 Gabriel Bortoleto 2025-11-21 13:15
5 Gabriel Bortoleto 2025-11-21 13:15 CET
11 P1 Classification ↗ 2025-11-21 13:16
2025-11-21 13:16 CET
12 Decision - Car 5 - Alleged failure to slow for yellow flags ↗ 5 Gabriel Bortoleto 2025-11-21 13:16
5 Gabriel Bortoleto 2025-11-21 13:16 CET
13 P2 Classification ↗ 2025-11-21 13:17
2025-11-21 13:17 CET
14 Summons - Car 16 - Allegedly not replacing the steering wheel and turning off ERS ↗ 16 Charles Leclerc 2025-11-21 13:17
16 Charles Leclerc 2025-11-21 13:17 CET
15 P1 and P2 Scrutineering ↗ 2025-11-21 13:17
2025-11-21 13:17 CET
16 Gara Director Notes - SC2 - SC1 Times ↗ 2025-11-21 13:17
2025-11-21 13:17 CET
17 Decision - Car 16 - Alleged failure to leave the car in gear and turn off ERS ↗ 16 Charles Leclerc 2025-11-21 13:15
16 Charles Leclerc 2025-11-21 13:15 CET
18 Post-Qualifiche Procedure ↗ 2025-11-21 22:13
2025-11-21 22:13 CET
19 Event Notes - Pirelli Preview Issue V2 ↗ 2025-11-21 22:34
2025-11-21 22:34 CET
20 Gara Director's Event Notes V2 ↗ 2025-11-22 00:58
2025-11-22 00:58 CET
21 Infringement - Car 44 - Pit lane speeding ↗ 44 Lewis Hamilton 2025-11-22 01:56
44 Lewis Hamilton 2025-11-22 01:56 CET
22 P3 Classification ↗ 2025-11-22 02:53
2025-11-22 02:53 CET
23 Infringement – Car 43 – Electronic Tyre Returns (Intermediate) ↗ 43 Franco Colapinto 2025-11-22 05:01
43 Franco Colapinto 2025-11-22 05:01 CET
24 Treno-Up Sheets of Car Numbers 63 and 12 ↗ 2025-11-22 05:33
2025-11-22 05:33 CET
25 Summons - Alpine - Electronic return of tyres - Car 43 ↗ 43 Franco Colapinto 2025-11-22 06:15
43 Franco Colapinto 2025-11-22 06:15 CET
26 Summons - Car 55 - Alleged rejoining the track unsafely ↗ 55 Carlos Sainz 2025-11-22 06:15
55 Carlos Sainz 2025-11-22 06:15 CET
27 Summons - Car 18 - Alleged rejoining the track unsafely by car 55 ↗ 18 Lance Stroll 2025-11-22 06:16
18 Lance Stroll 2025-11-22 06:16 CET
28 Summons - Mercedes - Failure to submit setup sheet - Car 63 ↗ 63 George Russell 2025-11-22 06:16
63 George Russell 2025-11-22 06:16 CET
29 Summons - Mercedes - Failure to submit setup sheet - Car 12 ↗ 12 Andrea Kimi Antonelli 2025-11-22 06:16
12 Andrea Kimi Antonelli 2025-11-22 06:16 CET
30 Provisional Qualifiche Classification ↗ 2025-11-22 06:27
2025-11-22 06:27 CET
31 Decision - Car 63 - Alleged failure to submit setup sheet ↗ 63 George Russell 2025-11-22 07:05
63 George Russell 2025-11-22 07:05 CET
32 Decision - Car 12 - Alleged failure to submit setup sheet ↗ 12 Andrea Kimi Antonelli 2025-11-22 07:06
12 Andrea Kimi Antonelli 2025-11-22 07:06 CET
33 Infringement - Qualifiche Deleted Giro Times ↗ 2025-11-22 07:06
2025-11-22 07:06 CET
34 Infringement - Qualifiche Deleted Giro Times - Yellow Bandiere ↗ 2025-11-22 07:12
2025-11-22 07:12 CET
35 Decision - Car 55 - Alleged rejoining the track unsafely ↗ 55 Carlos Sainz 2025-11-22 07:43
55 Carlos Sainz 2025-11-22 07:43 CET
36 Infringement - Car 43 - Electronic return of tyres ↗ 43 Franco Colapinto 2025-11-22 07:48
43 Franco Colapinto 2025-11-22 07:48 CET
37 P3 and Qualifiche Scrutineering ↗ 2025-11-22 07:54
2025-11-22 07:54 CET
38 Final Qualifiche Classification ↗ 2025-11-22 08:10
2025-11-22 08:10 CET
39 Provisional Starting Griglia ↗ 2025-11-22 08:15
2025-11-22 08:15 CET
40 Pre-Gara Procedure ↗ 2025-11-23 00:23
2025-11-23 00:23 CET
41 Post-Gara Procedure ↗ 2025-11-23 01:08
2025-11-23 01:08 CET
42 Parc Fermé Issues ↗ 2025-11-23 01:19
2025-11-23 01:19 CET
43 Infringement - Car 22 - Changes made during Parc Ferme ↗ 22 Yuki Tsunoda 2025-11-23 01:56
22 Yuki Tsunoda 2025-11-23 01:56 CET
44 Parts and parameters been replaced and or changed during Parc Fermé ↗ 2025-11-23 04:06
2025-11-23 04:06 CET
45 Final Starting Griglia ↗ 2025-11-23 04:07
2025-11-23 04:07 CET
46 Decision - Gara SC2-SC1 Time - Car 4 ↗ 4 Lando Norris 2025-11-23 05:09
4 Lando Norris 2025-11-23 05:09 CET
47 Decision - Car 30 - Turn 1 incident with Car 81 ↗ 30 Liam Lawson 2025-11-23 05:59
30 Liam Lawson 2025-11-23 05:59 CET
48 Infringement - Car 12 - Moved prior to start signal ↗ 12 Andrea Kimi Antonelli 2025-11-23 06:40
12 Andrea Kimi Antonelli 2025-11-23 06:40 CET
49 Infringement - Car 23 - Collision with car 44 in Turn 14 ↗ 23 Alexander Albon 2025-11-23 07:00
23 Alexander Albon 2025-11-23 07:00 CET
50 Infringement - Car 23 - Exceeded speed limit when leaving the grid ↗ 23 Alexander Albon 2025-11-23 07:00
23 Alexander Albon 2025-11-23 07:00 CET
51 Infringement - Car 5 - Causing a collision with Car 18 in turn 1 ↗ 5 Gabriel Bortoleto 2025-11-23 06:41
5 Gabriel Bortoleto 2025-11-23 06:41 CET
52 Provisional Gara Classification ↗ 2025-11-23 06:41
2025-11-23 06:41 CET
53 Skid Wear of Car Numbers 81 and 04 ↗ 2025-11-23 08:30
2025-11-23 08:30 CET
54 Summons - Car 81 - Technical Regulations ↗ 81 Oscar Piastri 2025-11-23 08:35
81 Oscar Piastri 2025-11-23 08:35 CET
55 Summons - Car 4 - Technical Regulations ↗ 4 Lando Norris 2025-11-23 08:36
4 Lando Norris 2025-11-23 08:36 CET
57 Infringement - Car 4 - Technical non-conformity (Plank Assembly) ↗ 4 Lando Norris 2025-11-23 10:45
4 Lando Norris 2025-11-23 10:45 CET
58 Infringement - Car 81 - Technical non-conformity (Plank Assembly) (Corrected) ↗ 81 Oscar Piastri 2025-11-23 11:01
81 Oscar Piastri 2025-11-23 11:01 CET
59 Gara Scrutineering ↗ 2025-11-23 11:12
2025-11-23 11:12 CET
60 Final Gara Classification ↗ 2025-11-23 11:35
2025-11-23 11:35 CET
61 Campionato Punti ↗ 2025-11-23 11:41
2025-11-23 11:41 CET
FIA official decisions and documents (fia.com) · PDF original PDF links
Record Basis · Calculation basis
Gara order is the final classification(post-race penalties applied) · le qualifiche session data 2003+ · lap times 1996+ · pit stops 2012+ (pit-lane transit, not stationary time) · Ritiro = Finished(Finished·+N Giri) non-Finished statuses
Fonti dei dati: Jolpica-F1 (Ergast compatible API) · weather·Direzione gara OpenF1 (2023+) · Last fetched: 2026-09-05 14:15